Flag for Germany Weather past 2 weeks in Neu-Ulm, Bavaria, Germany

Now
66 °F

Passing clouds.


Feels Like: 66 °F
Forecast: 62 / 89 °F
Wind: 3 mph from West

Location: Laupheim Airport

Current Time: Aug 28, 2015 at 4:21:12 AM

Latest Report: Aug 28, 2015 at 3:20 AM


Visibility: N/A

Pressure: 30.01 "Hg

Humidity: 68%

Dew point: 55 °F

Location of Neu-UlmLocation

Historic Weather in Neu-Ulm — Graph

°F

Neu-Ulm temperature yesterday

Maximum temperature yesterday: 84 °F (at 3:20 PM)
Minimum temperature yesterday: 54 °F (at 5:20 AM)
Average temperature yesterday: 69 °F

Past Weeks' High & Low Weather Summary

 TemperatureHumidityPressure
High91 °F (Aug 13, 4:20 PM)100% (Aug 15, 8:20 PM)30.30 "Hg (Aug 15, 8:20 PM)
Low46 °F (Aug 26, 5:20 AM)28% (Aug 13, 4:20 PM)29.74 "Hg (Aug 24, 8:20 AM)
Average63 °F75%30.01 "Hg
* Reported Aug 13 2:20 AM — Aug 28 2:20 AM, Neu-Ulm, Weather by CustomWeather, © 2015

Note: Actual official high and low records may vary slightly from our data, if they occured in-between our weather recording intervals... More about our weather records

Advertising

Neu-Ulm weather history for previous 24 hours

 ConditionsComfort  
Time TempWeatherWind HumidityBarometerVisibility
2:20 AM
Fri, Aug 28
68 °FPartly cloudy.7 mph60%29.98 "HgN/A
1:20 AM68 °FPartly cloudy.7 mph60%29.98 "HgN/A
12:20 AM66 °FPassing clouds.6 mph60%29.95 "HgN/A
11:20 PM
Thu, Aug 27
70 °FPassing clouds.5 mph53%29.95 "HgN/A
10:20 PM72 °FPassing clouds.6 mph47%29.95 "HgN/A
9:20 PM73 °FPassing clouds.6 mph44%29.95 "HgN/A
8:20 PM75 °FPartly sunny.5 mph41%29.95 "HgN/A
7:20 PM82 °FPartly sunny.5 mph30%29.92 "HgN/A
6:20 PM84 °FPartly sunny.6 mph31%29.95 "HgN/A
5:20 PM84 °FPartly sunny.9 mph31%29.95 "HgN/A
4:20 PM84 °FPartly sunny.9 mph29%29.95 "HgN/A
3:20 PM84 °FPartly sunny.9 mph29%29.95 "HgN/A
2:20 PM82 °FPartly sunny.8 mph32%29.98 "HgN/A
1:20 PM81 °FPartly sunny.8 mph37%29.98 "HgN/A
12:20 PM77 °FPartly sunny.6 mph51%30.01 "HgN/A
11:20 AM73 °FPartly sunny.6 mph57%30.01 "HgN/A
10:20 AM70 °FPartly sunny.6 mph57%30.01 "HgN/A
9:20 AM61 °FPartly sunny.3 mph83%30.01 "HgN/A
8:20 AM57 °FPartly sunny.1 mph88%30.01 "HgN/A
7:20 AM55 °FPassing clouds.No wind88%30.01 "HgN/A
6:20 AM54 °FPassing clouds.5 mph94%30.01 "HgN/A
5:20 AM54 °FPassing clouds.2 mph94%30.01 "HgN/A
4:20 AM55 °FPassing clouds.5 mph88%30.01 "HgN/A
Weather by CustomWeather, © 2015

See weather overviewHow to use our weather pages